Regional Weather Roundup
Issued by NWS Kansas City/Pleasant Hill, MO

Home | Current Version | Previous Version | Text Only | Print | Product List | Glossary Off
Versions: 1 2 3 4 5 6 7 8 9 10 11 12 13 14 15 16 17 18 19 20 21 22 23 24 25 26 27 28

000
ASUS43 KEAX 180610
RWREAX

WEATHER ROUNDUP FOR EASTERN KANSAS AND NORTHWEST MISSOURI
NATIONAL WEATHER SERVICE KANSAS CITY/PLEASANT HILL MO
1200 AM CST THU JAN 18 2018

KSZ040-057-103>105-MOZ028-029-037-043-180700-
...KANSAS CITY METROPOLITAN AREA...

CITY           SKY/WX    TMP DP  RH WIND       PRES   REMARKS
K.C. INTL      CLOUDY    17   9  70 SW13      30.38F WCI   4
6HR MIN TEMP:  16; 6HR MAX TEMP:  19;

K.C. DOWNTOWN  CLOUDY    21   9  59 SW9       30.40F WCI  11
6HR MIN TEMP:  19; 6HR MAX TEMP:  22;

LEES SUMMIT    CLOUDY    16  10  77 SW14      30.40F WCI   2
6HR MIN TEMP:  15; 6HR MAX TEMP:  20;

OLATHE - IXD   CLOUDY    12   8  84 S8        30.40F WCI   0
6HR MIN TEMP:  11; 6HR MAX TEMP:  18;

OLATHE - OJC   CLOUDY    13   8  81 SW9       30.40F WCI   1
6HR MIN TEMP:  13; 6HR MAX TEMP:  18;

LAWRENCE       CLOUDY    15   8  73 CALM      30.40F

$$

MOZ001>008-011>017-020>025-030>033-038>040-044>046-053-054-180700-
...NORTHERN AND CENTRAL MISSOURI...

CITY           SKY/WX    TMP DP  RH WIND       PRES   REMARKS
ST. JOSEPH     CLOUDY    16  12  84 S8        30.38F WCI   5
6HR MIN TEMP:  13; 6HR MAX TEMP:  22;

MOSBY          CLOUDY    18  10  73 S5        30.41F WCI  11
WARRENSBURG    CLOUDY    14   9  79 S7        30.44F WCI   4
WHITEMAN AFB   CLEAR     16   7  68 SW12      30.39F WCI   2
6HR MIN TEMP:  13; 6HR MAX TEMP:  17;

CLINTON        NOT AVBL
SEDALIA        CLOUDY    17  10  74 SW12      30.44F WCI   4
6HR MIN TEMP:  16; 6HR MAX TEMP:  20;

WARSAW         NOT AVBL
CHILLICOTHE      N/A     14   8  77 S7        30.40F WCI   4
6HR MIN TEMP:  14; 6HR MAX TEMP:  21;

KIRKSVILLE     CLEAR     16  11  80 SW15      30.36F WCI   1
6HR MIN TEMP:  16; 6HR MAX TEMP:  19;


$$

MOZ041-047>049-056>058-063>065-088>090-097-180700-
...EASTERN AND SOUTHERN MISSOURI...

CITY           SKY/WX    TMP DP  RH WIND       PRES   REMARKS
ST. LOUIS INTL CLOUDY    20   9  62 W7        30.46F WCI  11
6HR MIN TEMP:  18; 6HR MAX TEMP:  22;

SPIRIT OF STL  CLOUDY    20   9  62 SW12G22   30.45F WCI   8
COLUMBIA       CLOUDY    15   8  73 SW9       30.43F WCI   3
JEFFERSON CITY CLOUDY    16   8  71 CALM      30.48F
ROLLA          CLEAR     15   7  70 SW12      30.45F WCI   2
OSAGE BEACH    CLOUDY    10   4  76 S5        30.48F WCI   2
SPRINGFIELD    CLOUDY    14   6  70 S12       30.45F WCI   0
BRANSON        CLOUDY    18   7  62 SW6       30.49F WCI   9
JOPLIN         CLOUDY    16   7  67 S9        30.49F WCI   4
WEST PLAINS    CLOUDY    13   5  70 SW3       30.48F

$$

IAZ060-094-KSZ022-034>040-054-083-096-NEZ052-066-093-180700-
...KANSAS...SOUTHEAST NEBRASKA AND IOWA...

CITY           SKY/WX    TMP DP  RH WIND       PRES   REMARKS
TOPEKA         CLOUDY    19  11  70 SW5       30.38F WCI  12
6HR MIN TEMP:  18; 6HR MAX TEMP:  24;

MANHATTAN      CLOUDY    22  10  60 SW10      30.35F WCI  11
EMPORIA        CLEAR     17   9  70 S10       30.39F WCI   5
CHANUTE          N/A    N/A N/A N/A MISG      30.46F
WICHITA        CLOUDY    20   8  60 S12       30.39F WCI   8
OMAHA          CLOUDY    15   9  76 SE9       30.28F WCI   3
LINCOLN        CLOUDY    21  11  65 SW7       30.28F WCI  12
FALLS CITY     CLOUDY    19  11  70 S8        30.32F WCI   9
LAMONI         CLOUDY    18  10  71 SW15      30.30F WCI   4
DES MOINES     CLOUDY    21  11  65 SW13      30.25F WCI   9

$$





USA.gov is the U.S. government's official web portal to all federal, state and local government web resources and services.